Regional Weather Roundup
Issued by NWS Portland, ME

Home | Current Version | Previous Version | Text Only | Print | Product List | Glossary On
Versions: 1 2 3 4 5 6 7 8 9 10 11 12 13 14 15 16 17 18 19 20 21 22 23 24 25 26 27 28 29 30 31 32 33 34 35 36 37 38 39 40 41 42 43 44 45 46 47 48 49 50
000
ASUS41 KGYX 031710
RWRGYX
WEATHER ROUNDUP FOR MAINE AND NEW HAMPSHIRE
NATIONAL WEATHER SERVICE GRAY ME
100 PM EDT SUN MAY 03 2015

MEZ002-005-006-010-012-015-018-020-021-024-026-027-029-031800-
MAINE

CITY           SKY/WX    TMP DP  RH WIND       PRES   REMARKS
PORTLAND       MOSUNNY   61  44  53 S12       30.07S
SANFORD        SUNNY     70  45  40 S8        30.05F
BAR HARBOR     SUNNY     54  45  71 SW12      30.07F
WISCASSET      SUNNY     57  44  62 SE9       30.08F
ROCKLAND       SUNNY     50  43  76 S10       30.07S
FRYEBURG       PTSUNNY   74  37  26 VRB5      30.02F
LEWISTONAUBURN MOSUNNY   66  45  45 S8        30.05S
AUGUSTA        MOSUNNY   66  43  43 VRB7      30.04F
WATERVILLE     SUNNY     66  43  42 S7        30.01F
BANGOR         MOSUNNY   64  42  44 S7        30.04F
GREENVILLE       N/A     68  28  22 VRB6      29.99F
MILLINOCKET    SUNNY     68  37  32 CALM      30.02F
HOULTON        SUNNY     66  32  28 N7        30.01F
PRESQUE ISLE   SUNNY     64  28  25 CALM      30.02F
FRENCHVILLE    SUNNY     63  24  22 VRB6      30.01F
CARIBOU        SUNNY     64  30  27 S6        30.02S
$$

NHZ002-005-008-009-011-012-014-031800-
NEW HAMPSHIRE

CITY           SKY/WX    TMP DP  RH WIND       PRES   REMARKS
PORTSMOUTH     MOSUNNY   64  45  50 SE8       30.04S
ROCHESTER      SUNNY     73  44  35 VRB7      30.03F
NASHUA         SUNNY     75  40  28 SE6       30.04F
MANCHESTER     MOSUNNY   76  30  18 VRB6      30.01F
CONCORD        SUNNY     77  27  15 VRB5      30.02F
LACONIA        PTSUNNY   73  30  20 NE3       29.99F
PLYMOUTH       CLOUDY    73  41  32 CALM      30.00S
BERLIN         CLOUDY    70  33  25 NE6       30.02S
WHITEFIELD     PTSUNNY   72  32  23 S6        30.01F
JAFFREY        MOSUNNY   72  31  22 VRB3      30.04F
KEENE          MOSUNNY   73  36  25 NW3       30.03F
LEBANON        PTSUNNY   74  36  25 SW8       30.00F
MT WASHINGTON  PTSUNNY   43  28  56 W18         N/A
$$

VTZ005-007-008-031800-
VERMONT

CITY           SKY/WX    TMP DP  RH WIND       PRES   REMARKS
ST JOHNSBURY     N/A     72  37  28 MISG      29.98F
MONTPELIER     CLOUDY    70  32  24 VRB3      30.05S
BURLINGTON     MOSUNNY   75  35  23 CALM      30.00F
$$

MAZ007-012-024-CTZ003-RIZ002-NYZ038-NYZ072-031800-
SOUTHERN NEW ENGLAND AND NY

CITY           SKY/WX    TMP DP  RH WIND       PRES   REMARKS
BOSTON         MOSUNNY   60  43  53 E13       30.07S
WORCESTER      PTSUNNY   71  30  21 VRB5      30.05S
NANTUCKET      SUNNY     52  38  58 S13       30.14S
PROVIDENCE     MOSUNNY   60  44  55 SE13      30.08S
HARTFORD       MOSUNNY   77  39  25 E5        30.03F
ALBANY         MOSUNNY   77  40  26 W13       30.04F
NEW YORK CITY  MOSUNNY   75  38  26 CALM      30.07F
$$

ANZ081-ANZ082-ANZ150-NHZ014-MEZ023>029-031800-
COASTAL MARINE OBSERVATIONS

STATION/POSITION TIME  TEMP    WIND        PRES    WAVE
                       AIR SEA DIR/SP/G            HT/PER
                 (UTC) (F)     (DEG/KT/KT) (MB)    (FT/S)
$$

.............KEY..............
   WCI - WIND CHILL
   TC  - TEMPERATURE IN CELSIUS
   VSB - VISIBILITY IN MILES
   HX  - HEAT INDEX
   FAIR- INDICATES FEW OR NO CLOUDS BELOW 12,000 FT, WITH NO
         SIGNIFICANT WEATHER AND/OR OBSTRUCTIONS TO VISIBILITY.




USA.gov is the U.S. government's official web portal to all federal, state and local government web resources and services.